This demonstration page uses our WeatherBlox Daily Observations layout. Learn more.

41.55636, -103.73856

Hourly Observations for May 21, 2018

Temp ( °F °C ) Dew Point ( °F °C ) Humidity (%) Winds ( mph kmh ) Pressure ( in mb ) Visibility ( mi km ) Precip ( " mm )
12:58 am 00:58 Clear 44 6.7 43 6 95 95 S 10 17 30.06 1018 10 16.0934 N/A
1:58 am 01:58 Clear 44 6.4 42 5.6 95 95 S 9 15 30.05 1018 8 12.87472 N/A
2:58 am 02:58 Clear 44 6.5 42 5.8 95 95 SSE 10 17 30.01 1016 8 12.87472 N/A
3:58 am 03:58 Mostly Clear with Mist and Fog 44 6.9 43 6.2 95 95 SSE 16 26 30 1016 6 9.65604 N/A
4:58 am 04:58 Mostly Cloudy 45 7.2 44 6.6 96 96 S 13 20 29.99 1016 N/A N/A
5:58 am 05:58 Cloudy with Mist and Fog 45 7.4 44 6.9 97 97 SSW 13 20 29.98 1015 5 8.0467 N/A
6:58 am 06:58 Cloudy with Mist and Fog 45 7.4 44 6.7 95 95 SW 10 17 29.98 1015 1.75 2.816345 N/A
7:58 am 07:58 Mostly Cloudy with Fog 46 7.5 44 6.9 96 96 S 9 15 29.98 1015 3 4.82802 N/A
8:58 am 08:58 Cloudy with Mist and Fog 47 8.3 46 7.7 96 96 SW 10 17 30.02 1017 5 8.0467 N/A
9:58 am 09:58 Mostly Cloudy 52 11.1 47 8.6 85 85 SW 7 11 29.99 1016 10 16.0934 N/A
10:58 am 10:58 Sunny 58 14.5 49 9.7 73 73 S 5 7 29.97 1015 10 16.0934 N/A
11:58 am 11:58 Sunny 63 17.3 51 10.6 65 65 SE 8 13 29.97 1015 10 16.0934 N/A
12:58 pm 12:58 Sunny 64 17.8 50 10 60 60 SSE 3 6 29.95 1014 10 16.0934 N/A
1:58 pm 13:58 Sunny 67 19.5 51 10.4 56 56 SSE 8 13 29.94 1014 10 16.0934 N/A
2:58 pm 14:58 Sunny 69 20.5 51 10.5 53 53 SSE 6 9 29.91 1013 10 16.0934 N/A
3:58 pm 15:58 Partly Cloudy 67 19.5 51 10.8 57 57 ESE 6 9 29.92 1013 10 16.0934 N/A
4:58 pm 16:58 Sunny 67 19.4 51 10.6 57 57 ESE 8 13 29.9 1013 10 16.0934 N/A
5:58 pm 17:58 Mostly Sunny 65 18.3 55 12.9 71 71 NNW 6 9 29.94 1014 10 16.0934 N/A
6:58 pm 18:58 Mostly Cloudy 62 16.8 56 13.1 79 79 ESE 3 6 29.95 1014 10 16.0934 N/A
7:58 pm 19:58 Mostly Cloudy 61 16.3 54 12.3 77 77 E 14 22 29.93 1014 10 16.0934 N/A
8:58 pm 20:58 Mostly Clear 58 14.5 52 11.3 81 81 ESE 7 11 29.92 1013 10 16.0934 N/A
9:58 pm 21:58 Clear 58 14.5 52 11 80 80 ESE 5 7 29.93 1014 10 16.0934 N/A
10:58 pm 22:58 Clear 57 13.9 51 10.8 82 82 ESE 5 7 29.91 1013 10 16.0934 N/A
11:58 pm 23:58 Mostly Clear 55 12.7 50 10.1 84 84 Calm 29.9 1013 10 16.0934 N/A

Powered by AerisWeather